| time (UTC) | temp F | wind direction | speed MPH | gust MPH | rain 1hr in | rain 24hr in | rain mn in | humidity % | barometer mb |
| 20260509072524 | 47 | 45 | 1.0 | 5.0 | 0.00 | 0.00 | 0.00 | 77 | 1009.0 |
| 20260509072022 | 47 | 45 | 2.0 | 6.0 | 0.00 | 0.00 | 0.00 | 78 | 1008.9 |
| 20260509071530 | 46 | 44 | 3.0 | 6.0 | 0.00 | 0.00 | 0.00 | 78 | 1009.0 |
| 20260509071021 | 46 | 103 | 2.0 | 3.0 | 0.00 | 0.00 | 0.00 | 75 | 1008.9 |
| 20260509070524 | 46 | 103 | 2.0 | 3.0 | 0.00 | 0.00 | 0.00 | 73 | 1008.9 |
| 20260509070018 | 47 | 103 | 1.0 | 4.0 | 0.00 | 0.00 | 0.00 | 72 | 1008.7 |
| 20260509065517 | 47 | 103 | 2.0 | 4.0 | 0.00 | 0.00 | 0.00 | 72 | 1008.5 |
| 20260509065015 | 48 | 103 | 0.0 | 0.0 | 0.00 | 0.00 | 0.00 | 69 | 1008.5 |
| 20260509064615 | 49 | 103 | 0.0 | 0.0 | 0.00 | 0.00 | 0.00 | 70 | 1008.4 |
| 20260509064011 | 49 | 103 | 0.0 | 0.0 | 0.00 | 0.00 | 0.00 | 70 | 1008.4 |
| 20260509063511 | 50 | 103 | 0.0 | 0.0 | 0.00 | 0.00 | 0.00 | 69 | 1008.4 |
| 20260509063018 | 50 | 103 | 0.0 | 0.0 | 0.00 | 0.00 | 0.00 | 68 | 1008.3 |
| 20260509062509 | 51 | 103 | 0.0 | 0.0 | 0.00 | 0.00 | 0.00 | 67 | 1008.2 |
| 20260509062007 | 51 | 103 | 0.0 | 1.0 | 0.00 | 0.00 | 0.00 | 67 | 1008.2 |
| 20260509061508 | 51 | 103 | 0.0 | 1.0 | 0.00 | 0.00 | 0.00 | 67 | 1007.9 |
| 20260509061012 | 52 | 103 | 0.0 | 2.0 | 0.00 | 0.00 | 0.00 | 66 | 1007.8 |
| 20260509060508 | 52 | 103 | 1.0 | 3.0 | 0.00 | 0.00 | 0.00 | 66 | 1007.8 |
| 20260509060008 | 53 | 103 | 1.0 | 6.0 | 0.00 | 0.00 | 0.00 | 65 | 1007.7 |
| 20260509055507 | 53 | 103 | 1.0 | 7.0 | 0.00 | 0.00 | 0.00 | 64 | 1007.6 |
| 20260509055007 | 53 | 111 | 3.0 | 7.0 | 0.00 | 0.00 | 0.00 | 64 | 1007.7 |
| 20260509054618 | 53 | 103 | 3.0 | 6.0 | 0.00 | 0.00 | 0.00 | 62 | 1007.8 |
| 20260509054006 | 53 | 103 | 3.0 | 6.0 | 0.00 | 0.00 | 0.00 | 62 | 1007.7 |
| 20260509053506 | 53 | 103 | 1.0 | 4.0 | 0.00 | 0.00 | 0.00 | 62 | 1007.7 |
| 20260509053006 | 53 | 103 | 1.0 | 6.0 | 0.00 | 0.00 | 0.00 | 62 | 1007.6 |
| 20260509052506 | 54 | 103 | 2.0 | 6.0 | 0.00 | 0.00 | 0.00 | 61 | 1007.6 |
| 20260509052005 | 54 | 103 | 0.0 | 4.0 | 0.00 | 0.00 | 0.00 | 61 | 1007.5 |
| 20260509051505 | 54 | 103 | 1.0 | 6.0 | 0.00 | 0.00 | 0.00 | 61 | 1007.6 |
| 20260509051005 | 55 | 109 | 2.0 | 6.0 | 0.00 | 0.00 | 0.00 | 60 | 1007.6 |
| 20260509050505 | 55 | 74 | 1.0 | 6.0 | 0.00 | 0.00 | 0.00 | 59 | 1007.5 |
| 20260509050005 | 55 | 88 | 2.0 | 14.0 | 0.00 | 0.00 | 0.00 | 59 | 1007.5 |
| 20260509045508 | 55 | 63 | 5.0 | 14.0 | 0.00 | 0.00 | 0.00 | 58 | 1007.4 |
| 20260509045004 | 55 | 63 | 8.0 | 17.0 | 0.00 | 0.00 | 0.00 | 59 | 1007.5 |
| 20260509044704 | 56 | 61 | 8.0 | 14.0 | 0.00 | 0.00 | 0.00 | 59 | 1007.5 |
| 20260509044008 | 56 | 73 | 8.0 | 14.0 | 0.00 | 0.00 | 0.00 | 59 | 1007.3 |
| 20260509043506 | 56 | 67 | 4.0 | 15.0 | 0.00 | 0.00 | 0.00 | 58 | 1006.9 |
| 20260509043005 | 56 | 67 | 7.0 | 15.0 | 0.00 | 0.00 | 0.00 | 57 | 1007.0 |
| 20260509042505 | 56 | 57 | 8.0 | 15.0 | 0.00 | 0.00 | 0.00 | 58 | 1007.0 |
| 20260509042008 | 56 | 59 | 7.0 | 12.0 | 0.00 | 0.00 | 0.00 | 59 | 1006.9 |
| 20260509041505 | 56 | 35 | 4.0 | 10.0 | 0.00 | 0.00 | 0.00 | 59 | 1006.7 |
| 20260509041005 | 56 | 55 | 5.0 | 9.0 | 0.00 | 0.00 | 0.00 | 59 | 1006.6 |
| 20260509040505 | 56 | 36 | 4.0 | 9.0 | 0.00 | 0.00 | 0.00 | 58 | 1006.7 |
| 20260509040008 | 56 | 31 | 3.0 | 9.0 | 0.00 | 0.00 | 0.00 | 58 | 1006.6 |
| 20260509035505 | 56 | 29 | 4.0 | 8.0 | 0.00 | 0.00 | 0.00 | 58 | 1006.7 |
| 20260509035005 | 56 | 31 | 3.0 | 8.0 | 0.00 | 0.00 | 0.00 | 58 | 1006.6 |
| 20260509034605 | 56 | 28 | 3.0 | 6.0 | 0.00 | 0.00 | 0.00 | 58 | 1006.3 |
| 20260509034003 | 56 | 30 | 3.0 | 8.0 | 0.00 | 0.00 | 0.00 | 57 | 1006.1 |
| 20260509033503 | 57 | 43 | 4.0 | 8.0 | 0.00 | 0.00 | 0.00 | 57 | 1006.0 |
| 20260509033002 | 57 | 37 | 4.0 | 7.0 | 0.00 | 0.00 | 0.00 | 57 | 1006.0 |
| 20260509032505 | 57 | 28 | 3.0 | 10.0 | 0.00 | 0.00 | 0.00 | 56 | 1006.2 |
| 20260509032002 | 57 | 42 | 5.0 | 10.0 | 0.00 | 0.00 | 0.00 | 57 | 1006.5 |
| 20260509031506 | 57 | 30 | 3.0 | 6.0 | 0.00 | 0.00 | 0.00 | 56 | 1006.6 |
| 20260509031001 | 57 | 32 | 3.0 | 6.0 | 0.00 | 0.00 | 0.00 | 56 | 1006.6 |
| 20260509030503 | 57 | 34 | 3.0 | 6.0 | 0.00 | 0.00 | 0.00 | 56 | 1006.5 |
| 20260509030001 | 57 | 45 | 3.0 | 6.0 | 0.00 | 0.00 | 0.00 | 56 | 1006.3 |
| 20260509025502 | 57 | 24 | 2.0 | 6.0 | 0.00 | 0.00 | 0.00 | 55 | 1006.1 |
| 20260509025002 | 58 | 38 | 3.0 | 8.0 | 0.00 | 0.00 | 0.00 | 54 | 1006.0 |
| 20260509024603 | 59 | 28 | 4.0 | 12.0 | 0.00 | 0.00 | 0.00 | 53 | 1005.8 |
| 20260509024002 | 59 | 17 | 4.0 | 12.0 | 0.00 | 0.00 | 0.00 | 53 | 1005.7 |
| 20260509023502 | 59 | 34 | 5.0 | 16.0 | 0.00 | 0.00 | 0.00 | 53 | 1005.5 |
| 20260509023002 | 59 | 19 | 5.0 | 16.0 | 0.00 | 0.00 | 0.00 | 52 | 1005.5 |
| 20260509022501 | 59 | 28 | 6.0 | 11.0 | 0.00 | 0.00 | 0.00 | 52 | 1005.4 |
| 20260509022001 | 60 | 26 | 6.0 | 11.0 | 0.00 | 0.00 | 0.00 | 51 | 1005.1 |
| 20260509021501 | 60 | 27 | 4.0 | 15.0 | 0.00 | 0.00 | 0.00 | 50 | 1005.3 |
| 20260509021000 | 61 | 46 | 5.0 | 16.0 | 0.00 | 0.00 | 0.00 | 50 | 1005.3 |
| 20260509020600 | 61 | 9 | 8.0 | 16.0 | 0.00 | 0.00 | 0.00 | 49 | 1005.1 |
| 20260509020108 | 61 | 9 | 7.0 | 15.0 | 0.00 | 0.00 | 0.00 | 48 | 1005.1 |
| 20260509015604 | 62 | 22 | 8.0 | 15.0 | 0.00 | 0.00 | 0.00 | 48 | 1004.8 |
| 20260509015101 | 62 | 32 | 6.0 | 13.0 | 0.00 | 0.00 | 0.00 | 49 | 1005.0 |
| 20260509014600 | 62 | 13 | 5.0 | 12.0 | 0.00 | 0.00 | 0.00 | 47 | 1005.2 |
| 20260509013559 | 64 | 5 | 4.0 | 9.0 | 0.00 | 0.00 | 0.00 | 40 | 1004.5 |
| 20260509013102 | 64 | 12 | 3.0 | 7.0 | 0.00 | 0.00 | 0.00 | 40 | 1004.2 |
| 20260509012558 | 64 | 22 | 2.0 | 8.0 | 0.00 | 0.00 | 0.00 | 39 | 1004.0 |
| 20260509012059 | 65 | 5 | 3.0 | 8.0 | 0.00 | 0.00 | 0.00 | 39 | 1003.9 |
| 20260509011600 | 65 | 28 | 3.0 | 11.0 | 0.00 | 0.00 | 0.00 | 38 | 1003.7 |
| 20260509011058 | 66 | 20 | 3.0 | 17.0 | 0.00 | 0.00 | 0.00 | 37 | 1003.7 |
| 20260509010558 | 67 | 43 | 3.0 | 6.0 | 0.00 | 0.00 | 0.00 | 32 | 1003.8 |
| 20260509010058 | 68 | 11 | 1.0 | 8.0 | 0.00 | 0.00 | 0.00 | 32 | 1003.6 |
| 20260509005558 | 69 | 360 | 4.0 | 14.0 | 0.00 | 0.00 | 0.00 | 32 | 1003.8 |
| 20260509005057 | 69 | 5 | 6.0 | 14.0 | 0.00 | 0.00 | 0.00 | 32 | 1003.7 |
| 20260509004601 | 70 | 360 | 3.0 | 17.0 | 0.00 | 0.00 | 0.00 | 28 | 1004.1 |
| 20260509003557 | 71 | 351 | 6.0 | 17.0 | 0.00 | 0.00 | 0.00 | 27 | 1004.1 |
| 20260509003059 | 71 | 308 | 4.0 | 9.0 | 0.00 | 0.00 | 0.00 | 26 | 1004.0 |
| 20260509002556 | 71 | 269 | 4.0 | 10.0 | 0.00 | 0.00 | 0.00 | 27 | 1003.8 |
| 20260509002057 | 71 | 283 | 1.0 | 10.0 | 0.00 | 0.00 | 0.00 | 27 | 1004.0 |
| 20260509001556 | 71 | 275 | 3.0 | 10.0 | 0.00 | 0.00 | 0.00 | 26 | 1003.9 |
| 20260509001055 | 72 | 281 | 4.0 | 11.0 | 0.00 | 0.00 | 0.00 | 26 | 1003.9 |
| 20260509000555 | 72 | 290 | 5.0 | 13.0 | 0.00 | 0.00 | 0.00 | 26 | 1003.9 |
| 20260509000100 | 73 | 323 | 7.0 | 16.0 | 0.00 | 0.00 | 0.00 | 25 | 1004.0 |
| 20260508235555 | 74 | 272 | 8.0 | 16.0 | 0.00 | 0.00 | 0.00 | 24 | 1004.1 |
| 20260508235055 | 74 | 263 | 7.0 | 14.0 | 0.00 | 0.00 | 0.00 | 25 | 1004.2 |
| 20260508234556 | 72 | 238 | 4.0 | 10.0 | 0.00 | 0.00 | 0.00 | 27 | 1004.3 |
| 20260508233555 | 72 | 265 | 5.0 | 12.0 | 0.00 | 0.00 | 0.00 | 26 | 1004.5 |
| 20260508233053 | 72 | 249 | 5.0 | 12.0 | 0.00 | 0.00 | 0.00 | 26 | 1004.6 |
| 20260508232554 | 73 | 266 | 6.0 | 13.0 | 0.00 | 0.00 | 0.00 | 26 | 1004.7 |
| 20260508232052 | 74 | 268 | 8.0 | 13.0 | 0.00 | 0.00 | 0.00 | 25 | 1004.8 |
| 20260508231551 | 72 | 330 | 4.0 | 11.0 | 0.00 | 0.00 | 0.00 | 28 | 1004.9 |
| 20260508231051 | 71 | 318 | 5.0 | 12.0 | 0.00 | 0.00 | 0.00 | 27 | 1004.9 |
| 20260508230554 | 71 | 308 | 4.0 | 12.0 | 0.00 | 0.00 | 0.00 | 27 | 1005.0 |
| 20260508230050 | 72 | 317 | 5.0 | 16.0 | 0.00 | 0.00 | 0.00 | 27 | 1005.0 |
| 20260508225549 | 72 | 315 | 6.0 | 16.0 | 0.00 | 0.00 | 0.00 | 27 | 1005.2 |
| 20260508225051 | 72 | 348 | 5.0 | 17.0 | 0.00 | 0.00 | 0.00 | 26 | 1005.3 |
| 20260508224611 | 73 | 309 | 5.0 | 15.0 | 0.00 | 0.00 | 0.00 | 25 | 1005.4 |
| 20260508223551 | 73 | 248 | 7.0 | 15.0 | 0.00 | 0.00 | 0.00 | 25 | 1005.4 |
| 20260508223053 | 74 | 262 | 6.0 | 13.0 | 0.00 | 0.00 | 0.00 | 25 | 1005.6 |
| 20260508222551 | 73 | 286 | 3.0 | 16.0 | 0.00 | 0.00 | 0.00 | 26 | 1005.7 |
| 20260508222049 | 73 | 262 | 6.0 | 16.0 | 0.00 | 0.00 | 0.00 | 25 | 1005.7 |
| 20260508221549 | 73 | 327 | 5.0 | 13.0 | 0.00 | 0.00 | 0.00 | 25 | 1005.6 |
| 20260508221048 | 73 | 323 | 7.0 | 13.0 | 0.00 | 0.00 | 0.00 | 24 | 1005.7 |
| 20260508220548 | 74 | 295 | 7.0 | 11.0 | 0.00 | 0.00 | 0.00 | 24 | 1005.7 |
| 20260508220052 | 74 | 334 | 7.0 | 16.0 | 0.00 | 0.00 | 0.00 | 24 | 1005.7 |
| 20260508215547 | 74 | 263 | 9.0 | 16.0 | 0.00 | 0.00 | 0.00 | 23 | 1006.0 |
| 20260508215048 | 75 | 275 | 7.0 | 18.0 | 0.00 | 0.00 | 0.00 | 22 | 1005.8 |
| 20260508214546 | 75 | 301 | 6.0 | 15.0 | 0.00 | 0.00 | 0.00 | 23 | 1006.0 |
| 20260508213544 | 74 | 262 | 5.0 | 14.0 | 0.00 | 0.00 | 0.00 | 24 | 1006.0 |
| 20260508213044 | 75 | 278 | 7.0 | 14.0 | 0.00 | 0.00 | 0.00 | 23 | 1006.2 |
| 20260508212544 | 75 | 273 | 7.0 | 14.0 | 0.00 | 0.00 | 0.00 | 23 | 1006.2 |
| 20260508212042 | 74 | 275 | 6.0 | 16.0 | 0.00 | 0.00 | 0.00 | 24 | 1006.3 |
| 20260508211548 | 74 | 270 | 8.0 | 16.0 | 0.00 | 0.00 | 0.00 | 23 | 1006.3 |
| 20260508211041 | 75 | 329 | 4.0 | 16.0 | 0.00 | 0.00 | 0.00 | 23 | 1006.6 |
| 20260508210540 | 74 | 280 | 7.0 | 16.0 | 0.00 | 0.00 | 0.00 | 24 | 1006.5 |
| 20260508210044 | 73 | 314 | 4.0 | 14.0 | 0.00 | 0.00 | 0.00 | 24 | 1006.7 |
| 20260508205543 | 73 | 290 | 8.0 | 14.0 | 0.00 | 0.00 | 0.00 | 23 | 1006.8 |
| 20260508205038 | 73 | 314 | 5.0 | 12.0 | 0.00 | 0.00 | 0.00 | 24 | 1006.9 |
| 20260508204637 | 74 | 259 | 7.0 | 16.0 | 0.00 | 0.00 | 0.00 | 23 | 1007.0 |
| 20260508203535 | 74 | 268 | 9.0 | 13.0 | 0.00 | 0.00 | 0.00 | 25 | 1007.0 |
| 20260508203041 | 73 | 226 | 5.0 | 17.0 | 0.00 | 0.00 | 0.00 | 24 | 1007.1 |
| 20260508202535 | 73 | 319 | 9.0 | 17.0 | 0.00 | 0.00 | 0.00 | 24 | 1007.2 |
| 20260508202036 | 73 | 13 | 5.0 | 15.0 | 0.00 | 0.00 | 0.00 | 24 | 1007.1 |
| 20260508201534 | 74 | 267 | 8.0 | 15.0 | 0.00 | 0.00 | 0.00 | 24 | 1007.1 |
| 20260508201032 | 73 | 252 | 6.0 | 16.0 | 0.00 | 0.00 | 0.00 | 24 | 1007.2 |
| 20260508200532 | 73 | 287 | 7.0 | 15.0 | 0.00 | 0.00 | 0.00 | 25 | 1007.2 |
| 20260508200033 | 73 | 267 | 5.0 | 12.0 | 0.00 | 0.00 | 0.00 | 25 | 1007.5 |
| 20260508195532 | 73 | 264 | 4.0 | 12.0 | 0.00 | 0.00 | 0.00 | 24 | 1007.5 |
| 20260508195028 | 72 | 330 | 3.0 | 12.0 | 0.00 | 0.00 | 0.00 | 25 | 1007.7 |
| 20260508194535 | 72 | 323 | 5.0 | 16.0 | 0.00 | 0.00 | 0.00 | 24 | 1007.9 |
| 20260508193532 | 72 | 308 | 5.0 | 16.0 | 0.00 | 0.00 | 0.00 | 24 | 1007.9 |
| 20260508193031 | 72 | 284 | 7.0 | 14.0 | 0.00 | 0.00 | 0.00 | 24 | 1008.0 |
| 20260508192532 | 71 | 256 | 4.0 | 12.0 | 0.00 | 0.00 | 0.00 | 24 | 1008.2 |
| 20260508192031 | 72 | 247 | 6.0 | 17.0 | 0.00 | 0.00 | 0.00 | 23 | 1008.1 |
| 20260508191535 | 72 | 243 | 6.0 | 17.0 | 0.00 | 0.00 | 0.00 | 25 | 1008.2 |
| 20260508191028 | 71 | 265 | 6.0 | 16.0 | 0.00 | 0.00 | 0.00 | 24 | 1008.4 |
| 20260508190529 | 70 | 110 | 2.0 | 14.0 | 0.00 | 0.00 | 0.00 | 23 | 1008.2 |
| 20260508190027 | 71 | 267 | 6.0 | 14.0 | 0.00 | 0.00 | 0.00 | 24 | 1008.5 |
| 20260508185527 | 71 | 261 | 4.0 | 11.0 | 0.00 | 0.00 | 0.00 | 25 | 1008.4 |
| 20260508185026 | 70 | 318 | 6.0 | 11.0 | 0.00 | 0.00 | 0.00 | 25 | 1008.6 |
| 20260508184526 | 70 | 301 | 4.0 | 10.0 | 0.00 | 0.00 | 0.00 | 24 | 1008.6 |
| 20260508183525 | 70 | 302 | 6.0 | 13.0 | 0.00 | 0.00 | 0.00 | 25 | 1008.9 |
| 20260508183031 | 69 | 325 | 2.0 | 14.0 | 0.00 | 0.00 | 0.00 | 25 | 1008.8 |
| 20260508182525 | 69 | 326 | 4.0 | 14.0 | 0.00 | 0.00 | 0.00 | 25 | 1009.0 |
| 20260508182025 | 70 | 211 | 6.0 | 14.0 | 0.00 | 0.00 | 0.00 | 25 | 1009.1 |
| 20260508181522 | 69 | 309 | 7.0 | 14.0 | 0.00 | 0.00 | 0.00 | 25 | 1009.2 |
| 20260508181021 | 69 | 317 | 4.0 | 11.0 | 0.00 | 0.00 | 0.00 | 25 | 1009.2 |
| 20260508180522 | 68 | 355 | 4.0 | 15.0 | 0.00 | 0.00 | 0.00 | 25 | 1009.3 |
| 20260508180023 | 69 | 257 | 6.0 | 15.0 | 0.00 | 0.00 | 0.00 | 25 | 1009.4 |
| 20260508175521 | 69 | 269 | 4.0 | 15.0 | 0.00 | 0.00 | 0.00 | 26 | 1009.5 |
| 20260508175021 | 69 | 273 | 7.0 | 15.0 | 0.00 | 0.00 | 0.00 | 25 | 1009.8 |
| 20260508174520 | 68 | 306 | 2.0 | 11.0 | 0.00 | 0.00 | 0.00 | 26 | 1009.7 |
| 20260508173516 | 68 | 281 | 4.0 | 14.0 | 0.00 | 0.00 | 0.00 | 26 | 1009.8 |
| 20260508173015 | 67 | 277 | 6.0 | 14.0 | 0.00 | 0.00 | 0.00 | 26 | 1010.0 |
| 20260508172517 | 68 | 271 | 5.0 | 10.0 | 0.00 | 0.00 | 0.00 | 26 | 1009.9 |
| 20260508172014 | 68 | 273 | 3.0 | 12.0 | 0.00 | 0.00 | 0.00 | 26 | 1010.0 |
| 20260508171515 | 68 | 234 | 6.0 | 12.0 | 0.00 | 0.00 | 0.00 | 26 | 1010.0 |
| 20260508171013 | 67 | 289 | 3.0 | 8.0 | 0.00 | 0.00 | 0.00 | 27 | 1010.0 |
| 20260508170512 | 67 | 336 | 3.0 | 11.0 | 0.00 | 0.00 | 0.00 | 26 | 1010.3 |
| 20260508170012 | 67 | 286 | 6.0 | 11.0 | 0.00 | 0.00 | 0.00 | 26 | 1010.2 |
| 20260508165511 | 66 | 261 | 3.0 | 10.0 | 0.00 | 0.00 | 0.00 | 27 | 1010.2 |
| 20260508165011 | 67 | 334 | 2.0 | 12.0 | 0.00 | 0.00 | 0.00 | 27 | 1010.2 |
| 20260508164510 | 66 | 282 | 5.0 | 12.0 | 0.00 | 0.00 | 0.00 | 28 | 1010.3 |
| 20260508163510 | 66 | 360 | 4.0 | 10.0 | 0.00 | 0.00 | 0.00 | 28 | 1010.3 |
| 20260508163012 | 65 | 276 | 1.0 | 8.0 | 0.00 | 0.00 | 0.00 | 28 | 1010.2 |
| 20260508162509 | 65 | 281 | 3.0 | 8.0 | 0.00 | 0.00 | 0.00 | 29 | 1010.5 |
| 20260508162007 | 65 | 284 | 3.0 | 9.0 | 0.00 | 0.00 | 0.00 | 29 | 1010.5 |
| 20260508161507 | 65 | 319 | 4.0 | 9.0 | 0.00 | 0.00 | 0.00 | 29 | 1010.5 |
| 20260508161006 | 64 | 45 | 1.0 | 8.0 | 0.00 | 0.00 | 0.00 | 29 | 1010.4 |
| 20260508160507 | 64 | 355 | 1.0 | 8.0 | 0.00 | 0.00 | 0.00 | 29 | 1010.5 |
| 20260508160012 | 64 | 277 | 0.0 | 7.0 | 0.00 | 0.00 | 0.00 | 29 | 1010.6 |
| 20260508155507 | 64 | 23 | 3.0 | 7.0 | 0.00 | 0.00 | 0.00 | 30 | 1010.7 |
| 20260508155003 | 63 | 5 | 2.0 | 9.0 | 0.00 | 0.00 | 0.00 | 30 | 1010.7 |
| 20260508154502 | 63 | 283 | 2.0 | 5.0 | 0.00 | 0.00 | 0.00 | 30 | 1010.6 |
| 20260508153508 | 63 | 47 | 2.0 | 5.0 | 0.00 | 0.00 | 0.00 | 30 | 1010.7 |
| 20260508153003 | 62 | 5 | 2.0 | 6.0 | 0.00 | 0.00 | 0.00 | 31 | 1010.7 |
| 20260508152506 | 62 | 355 | 3.0 | 6.0 | 0.00 | 0.00 | 0.00 | 30 | 1010.8 |
| 20260508152004 | 62 | 46 | 4.0 | 8.0 | 0.00 | 0.00 | 0.00 | 30 | 1010.7 |
| 20260508151501 | 61 | 347 | 1.0 | 8.0 | 0.00 | 0.00 | 0.00 | 31 | 1010.9 |
| 20260508151002 | 61 | 42 | 2.0 | 7.0 | 0.00 | 0.00 | 0.00 | 32 | 1010.9 |
| 20260508150502 | 61 | 50 | 3.0 | 6.0 | 0.00 | 0.00 | 0.00 | 33 | 1010.8 |
| 20260508150004 | 61 | 308 | 2.0 | 8.0 | 0.00 | 0.00 | 0.00 | 32 | 1011.0 |
| 20260508145559 | 61 | 86 | 3.0 | 10.0 | 0.00 | 0.00 | 0.00 | 32 | 1010.9 |
| 20260508145100 | 61 | 5 | 4.0 | 10.0 | 0.00 | 0.00 | 0.00 | 32 | 1011.0 |
| 20260508144602 | 60 | 311 | 3.0 | 8.0 | 0.00 | 0.00 | 0.00 | 33 | 1011.0 |
| 20260508143558 | 60 | 5 | 2.0 | 8.0 | 0.00 | 0.00 | 0.00 | 35 | 1011.2 |
| 20260508143119 | 60 | 355 | 2.0 | 5.0 | 0.00 | 0.00 | 0.00 | 35 | 1011.0 |
| 20260508142554 | 59 | 348 | 2.0 | 6.0 | 0.00 | 0.00 | 0.00 | 37 | 1011.0 |
| 20260508142053 | 59 | 315 | 3.0 | 6.0 | 0.00 | 0.00 | 0.00 | 37 | 1011.2 |
| 20260508141552 | 59 | 315 | 2.0 | 5.0 | 0.00 | 0.00 | 0.00 | 38 | 1011.2 |
| 20260508141052 | 59 | 315 | 2.0 | 8.0 | 0.00 | 0.00 | 0.00 | 39 | 1011.2 |
| 20260508140549 | 58 | 325 | 3.0 | 8.0 | 0.00 | 0.00 | 0.00 | 39 | 1011.1 |
| 20260508135550 | 57 | 292 | 1.0 | 5.0 | 0.00 | 0.00 | 0.00 | 40 | 1011.1 |
| 20260508135046 | 57 | 309 | 1.0 | 5.0 | 0.00 | 0.00 | 0.00 | 41 | 1011.1 |
| 20260508134544 | 56 | 312 | 2.0 | 8.0 | 0.00 | 0.00 | 0.00 | 42 | 1011.0 |
| 20260508133546 | 55 | 303 | 0.0 | 6.0 | 0.00 | 0.00 | 0.00 | 46 | 1011.1 |
| 20260508133049 | 54 | 302 | 2.0 | 6.0 | 0.00 | 0.00 | 0.00 | 46 | 1010.9 |
| 20260508132544 | 53 | 294 | 1.0 | 6.0 | 0.00 | 0.00 | 0.00 | 48 | 1010.9 |
| 20260508132042 | 53 | 303 | 1.0 | 5.0 | 0.00 | 0.00 | 0.00 | 50 | 1010.8 |
| 20260508131541 | 52 | 310 | 1.0 | 5.0 | 0.00 | 0.00 | 0.00 | 50 | 1010.8 |
| 20260508131040 | 51 | 294 | 2.0 | 4.0 | 0.00 | 0.00 | 0.00 | 51 | 1010.7 |
| 20260508130538 | 50 | 321 | 1.0 | 4.0 | 0.00 | 0.00 | 0.00 | 53 | 1010.6 |
| 20260508130038 | 49 | 290 | 0.0 | 4.0 | 0.00 | 0.00 | 0.00 | 55 | 1010.6 |
| 20260508125538 | 48 | 287 | 0.0 | 2.0 | 0.00 | 0.00 | 0.00 | 57 | 1010.6 |
| 20260508125036 | 48 | 287 | 0.0 | 4.0 | 0.00 | 0.00 | 0.00 | 58 | 1010.5 |
| 20260508124536 | 47 | 282 | 0.0 | 4.0 | 0.00 | 0.00 | 0.00 | 59 | 1010.5 |
| 20260508123532 | 46 | 309 | 0.0 | 3.0 | 0.00 | 0.00 | 0.00 | 60 | 1010.4 |
| 20260508123034 | 46 | 309 | 1.0 | 4.0 | 0.00 | 0.00 | 0.00 | 61 | 1010.3 |
| 20260508122530 | 45 | 310 | 2.0 | 4.0 | 0.00 | 0.00 | 0.00 | 61 | 1010.2 |
| 20260508122030 | 45 | 284 | 1.0 | 4.0 | 0.00 | 0.00 | 0.00 | 62 | 1010.3 |
| 20260508121530 | 45 | 309 | 0.0 | 3.0 | 0.00 | 0.00 | 0.00 | 62 | 1010.1 |
| 20260508121029 | 45 | 309 | 1.0 | 4.0 | 0.00 | 0.00 | 0.00 | 62 | 1010.1 |
| 20260508120528 | 44 | 308 | 1.0 | 4.0 | 0.00 | 0.00 | 0.00 | 63 | 1010.1 |
| 20260508120028 | 44 | 307 | 1.0 | 4.0 | 0.00 | 0.00 | 0.00 | 63 | 1010.1 |
| 20260508115527 | 44 | 304 | 1.0 | 4.0 | 0.00 | 0.00 | 0.00 | 64 | 1010.0 |
| 20260508115028 | 44 | 302 | 2.0 | 4.0 | 0.00 | 0.00 | 0.00 | 65 | 1010.0 |
| 20260508114527 | 43 | 317 | 0.0 | 4.0 | 0.00 | 0.00 | 0.00 | 65 | 1009.8 |
| 20260508113526 | 44 | 308 | 1.0 | 3.0 | 0.00 | 0.00 | 0.00 | 64 | 1009.9 |
| 20260508113025 | 45 | 308 | 1.0 | 3.0 | 0.00 | 0.00 | 0.00 | 63 | 1009.7 |
| 20260508112527 | 45 | 307 | 1.0 | 5.0 | 0.00 | 0.00 | 0.00 | 64 | 1009.6 |
| 20260508112023 | 45 | 304 | 2.0 | 5.0 | 0.00 | 0.00 | 0.00 | 64 | 1009.4 |
| 20260508111523 | 45 | 316 | 1.0 | 4.0 | 0.00 | 0.00 | 0.00 | 63 | 1009.3 |
| 20260508111022 | 46 | 24 | 1.0 | 5.0 | 0.00 | 0.00 | 0.00 | 63 | 1009.4 |
| 20260508110520 | 46 | 355 | 3.0 | 6.0 | 0.00 | 0.00 | 0.00 | 64 | 1009.4 |
| 20260508110019 | 46 | 22 | 4.0 | 6.0 | 0.00 | 0.00 | 0.00 | 64 | 1009.3 |
| 20260508105519 | 46 | 294 | 0.0 | 8.0 | 0.00 | 0.00 | 0.00 | 65 | 1009.2 |
| 20260508105018 | 46 | 308 | 2.0 | 8.0 | 0.00 | 0.00 | 0.00 | 65 | 1008.9 |
| 20260508104517 | 46 | 35 | 1.0 | 6.0 | 0.00 | 0.00 | 0.00 | 65 | 1008.9 |
| 20260508103516 | 47 | 313 | 3.0 | 6.0 | 0.00 | 0.00 | 0.00 | 66 | 1008.7 |
| 20260508103020 | 47 | 297 | 2.0 | 8.0 | 0.00 | 0.00 | 0.00 | 65 | 1008.6 |
| 20260508102514 | 47 | 281 | 2.0 | 7.0 | 0.00 | 0.00 | 0.00 | 65 | 1008.5 |
| 20260508102013 | 48 | 287 | 3.0 | 8.0 | 0.00 | 0.00 | 0.00 | 64 | 1008.4 |
| 20260508101512 | 48 | 284 | 3.0 | 10.0 | 0.00 | 0.00 | 0.00 | 63 | 1008.4 |
| 20260508101013 | 49 | 307 | 4.0 | 11.0 | 0.00 | 0.00 | 0.00 | 63 | 1008.4 |
| 20260508100511 | 49 | 284 | 6.0 | 11.0 | 0.00 | 0.00 | 0.00 | 63 | 1008.3 |
| 20260508100020 | 49 | 292 | 4.0 | 11.0 | 0.00 | 0.00 | 0.00 | 64 | 1008.1 |
| 20260508095511 | 49 | 317 | 6.0 | 12.0 | 0.00 | 0.00 | 0.00 | 65 | 1008.2 |
| 20260508095013 | 49 | 285 | 7.0 | 13.0 | 0.00 | 0.00 | 0.00 | 64 | 1008.0 |
| 20260508094512 | 50 | 336 | 7.0 | 13.0 | 0.00 | 0.00 | 0.00 | 64 | 1008.1 |
| 20260508093511 | 50 | 293 | 8.0 | 16.0 | 0.00 | 0.00 | 0.00 | 65 | 1008.1 |
| 20260508093008 | 49 | 279 | 7.0 | 16.0 | 0.00 | 0.00 | 0.00 | 66 | 1008.1 |
| 20260508092510 | 49 | 279 | 6.0 | 12.0 | 0.00 | 0.00 | 0.00 | 66 | 1008.2 |
| 20260508092007 | 50 | 300 | 6.0 | 12.0 | 0.00 | 0.00 | 0.00 | 65 | 1007.9 |
| 20260508091506 | 50 | 277 | 6.0 | 11.0 | 0.00 | 0.00 | 0.00 | 65 | 1008.0 |
| 20260508091006 | 50 | 275 | 6.0 | 11.0 | 0.00 | 0.00 | 0.00 | 65 | 1007.8 |
| 20260508090605 | 50 | 281 | 6.0 | 9.0 | 0.00 | 0.00 | 0.00 | 66 | 1007.9 |
| 20260508090005 | 49 | 300 | 4.0 | 10.0 | 0.00 | 0.00 | 0.00 | 67 | 1007.8 |
| 20260508085504 | 49 | 292 | 4.0 | 8.0 | 0.00 | 0.00 | 0.00 | 67 | 1007.8 |
| 20260508085007 | 49 | 317 | 3.0 | 8.0 | 0.00 | 0.00 | 0.00 | 68 | 1007.9 |
| 20260508084505 | 48 | 302 | 3.0 | 8.0 | 0.00 | 0.00 | 0.00 | 68 | 1007.7 |
| 20260508083505 | 48 | 291 | 3.0 | 5.0 | 0.00 | 0.00 | 0.00 | 69 | 1007.8 |
| 20260508083005 | 49 | 299 | 1.0 | 6.0 | 0.00 | 0.00 | 0.00 | 68 | 1007.8 |
| 20260508082504 | 49 | 304 | 4.0 | 7.0 | 0.00 | 0.00 | 0.00 | 66 | 1007.8 |
| 20260508082004 | 51 | 327 | 4.0 | 10.0 | 0.00 | 0.00 | 0.00 | 65 | 1007.9 |
| 20260508081504 | 51 | 292 | 4.0 | 12.0 | 0.00 | 0.00 | 0.00 | 66 | 1008.0 |
| 20260508081003 | 50 | 275 | 4.0 | 12.0 | 0.00 | 0.00 | 0.00 | 67 | 1007.9 |
| 20260508080502 | 49 | 274 | 3.0 | 7.0 | 0.00 | 0.00 | 0.00 | 68 | 1008.1 |
| 20260508080006 | 49 | 284 | 3.0 | 5.0 | 0.00 | 0.00 | 0.00 | 68 | 1008.0 |
| 20260508075503 | 48 | 273 | 2.0 | 6.0 | 0.00 | 0.00 | 0.00 | 68 | 1008.2 |
| 20260508075004 | 48 | 272 | 3.0 | 6.0 | 0.00 | 0.00 | 0.00 | 67 | 1008.0 |
| 20260508074502 | 49 | 272 | 2.0 | 4.0 | 0.00 | 0.00 | 0.00 | 67 | 1008.1 |
| 20260508073503 | 49 | 272 | 3.0 | 7.0 | 0.00 | 0.00 | 0.00 | 64 | 1008.3 |
| 20260508073003 | 50 | 272 | 3.0 | 7.0 | 0.00 | 0.00 | 0.00 | 63 | 1008.2 |